GW3644 Weather Reports


Display with metric or nautical units.
time (UTC)temp
F
wind
direction
speed
MPH
gust
MPH
rain 1hr
in
rain 24hr
in
rain mn
in
humidity
%
barometer
mb
20260508002003 53 325 7.0 12.0 0.00 0.00 0.00 48 1013.6
20260508001503 53 302 8.0 12.0 0.00 0.00 0.00 47 1013.5
20260508001003 54 308 13.0 26.0 0.00 0.00 0.00 46 1013.5
20260508000503 54 321 9.0 14.0 0.00 0.00 0.00 47 1013.4
20260508000003 54 305 8.0 15.0 0.00 0.00 0.00 47 1013.3
20260507235503 54 325 9.0 21.0 0.00 0.00 0.00 46 1013.4
20260507235003 54 313 8.0 29.0 0.00 0.00 0.00 46 1013.1
20260507234503 54 311 7.0 15.0 0.00 0.00 0.00 46 1013.4
20260507234003 55 282 7.0 14.0 0.00 0.00 0.00 46 1013.3
20260507233503 55 315 11.0 21.0 0.00 0.00 0.00 45 1013.2
20260507233217 55 291 8.0 15.0 0.00 0.00 0.00 46 1013.1
20260507232503 55 312 10.0 14.0 0.00 0.00 0.00 46 1013.0
20260507232003 55 338 4.0 8.0 0.00 0.00 0.00 46 1013.0
20260507231503 55 323 6.0 14.0 0.00 0.00 0.00 45 1012.9
20260507231003 56 308 11.0 17.0 0.00 0.00 0.00 45 1012.7
20260507230503 56 314 5.0 8.0 0.00 0.00 0.00 44 1012.6
20260507230005 56 316 10.0 15.0 0.00 0.00 0.00 43 1012.6
20260507225503 56 302 6.0 14.0 0.00 0.00 0.00 44 1012.9
20260507225217 56 300 7.0 14.0 0.00 0.00 0.00 45 1012.7
20260507224504 56 294 7.0 14.0 0.00 0.00 0.00 44 1012.5
20260507224003 56 279 7.0 14.0 0.00 0.00 0.00 43 1012.3
20260507223503 57 311 8.0 19.0 0.00 0.00 0.00 42 1012.5
20260507223219 58 307 7.0 15.0 0.00 0.00 0.00 42 1012.5
20260507222718 58 294 9.0 17.0 0.00 0.00 0.00 42 1012.4
20260507222003 57 301 10.0 17.0 0.00 0.00 0.00 42 1012.3
20260507221503 58 318 14.0 21.0 0.00 0.00 0.00 40 1012.3
20260507221217 59 298 7.0 21.0 0.00 0.00 0.00 39 1012.3
20260507220503 59 300 6.0 12.0 0.00 0.00 0.00 39 1012.3
20260507220003 60 342 8.0 22.0 0.00 0.00 0.00 41 1012.2
20260507215718 59 300 5.0 12.0 0.00 0.00 0.00 39 1012.1
20260507215003 58 329 13.0 27.0 0.00 0.00 0.00 40 1011.9
20260507214503 58 301 11.0 14.0 0.00 0.00 0.00 41 1012.0
20260507214217 59 293 5.0 15.0 0.00 0.00 0.00 40 1011.7
20260507213504 58 316 8.0 22.0 0.00 0.00 0.00 40 1012.0
20260507213003 58 332 8.0 15.0 0.00 0.00 0.00 41 1011.7
20260507212503 58 303 8.0 14.0 0.00 0.00 0.00 42 1011.7
20260507212003 58 311 3.0 14.0 0.00 0.00 0.00 43 1012.0
20260507211718 59 320 11.0 14.0 0.00 0.00 0.00 40 1012.1
20260507211003 58 327 13.0 17.0 0.00 0.00 0.00 39 1011.9
20260507210718 58 319 7.0 15.0 0.00 0.00 0.00 40 1011.7
20260507210003 58 326 7.0 10.0 0.00 0.00 0.00 39 1011.7
20260507205503 59 329 4.0 12.0 0.00 0.00 0.00 41 1011.7
20260507205216 59 325 6.0 15.0 0.00 0.00 0.00 40 1011.6
20260507204503 59 310 7.0 14.0 0.00 0.00 0.00 41 1011.8
20260507204216 59 318 9.0 17.0 0.00 0.00 0.00 37 1011.9
20260507203503 60 283 7.0 19.0 0.00 0.00 0.00 40 1011.6
20260507203003 60 290 10.0 17.0 0.00 0.00 0.00 40 1011.8
20260507202504 59 301 8.0 12.0 0.00 0.00 0.00 40 1011.7
20260507202216 58 231 6.0 12.0 0.00 0.00 0.00 41 1011.9
20260507201503 60 271 7.0 15.0 0.00 0.00 0.00 38 1011.8
20260507201003 61 256 11.0 17.0 0.00 0.00 0.00 38 1011.8
20260507200503 61 239 9.0 14.0 0.00 0.00 0.00 40 1011.6
20260507200003 61 304 4.0 12.0 0.00 0.00 0.00 40 1011.9
20260507195503 60 321 10.0 21.0 0.00 0.00 0.00 40 1011.9
20260507195003 60 317 12.0 19.0 0.00 0.00 0.00 42 1012.1
20260507194503 60 328 7.0 21.0 0.00 0.00 0.00 40 1011.9
20260507194003 61 273 8.0 10.0 0.00 0.00 0.00 41 1012.1
20260507193503 60 300 9.0 14.0 0.00 0.00 0.00 41 1011.9
20260507193003 61 217 9.0 15.0 0.00 0.00 0.00 42 1012.2
20260507192503 61 275 10.0 19.0 0.00 0.00 0.00 40 1012.2
20260507192003 61 252 7.0 15.0 0.00 0.00 0.00 40 1012.0
20260507191717 60 251 9.0 15.0 0.00 0.00 0.00 41 1012.2
20260507191003 58 258 6.0 14.0 0.00 0.00 0.00 42 1012.0
20260507190503 58 259 8.0 15.0 0.00 0.00 0.00 41 1012.1
20260507190004 58 282 7.0 15.0 0.00 0.00 0.00 42 1012.2
20260507185503 59 301 11.0 15.0 0.00 0.00 0.00 42 1012.0
20260507185003 58 319 4.0 12.0 0.00 0.00 0.00 44 1012.3
20260507184719 58 329 7.0 12.0 0.00 0.00 0.00 44 1012.2
20260507184003 59 248 5.0 14.0 0.00 0.00 0.00 43 1012.3
20260507183503 61 217 12.0 21.0 0.00 0.00 0.00 44 1012.4
20260507183003 61 226 6.0 12.0 0.00 0.00 0.00 44 1012.4
20260507182503 59 277 6.0 12.0 0.00 0.00 0.00 43 1012.1
20260507182003 59 267 8.0 15.0 0.00 0.00 0.00 43 1012.4
20260507181503 58 271 7.0 12.0 0.00 0.00 0.00 44 1012.4
20260507181004 59 320 7.0 14.0 0.00 0.00 0.00 42 1012.3
20260507180503 57 317 7.0 22.0 0.00 0.00 0.00 46 1012.6
20260507180003 58 343 10.0 22.0 0.00 0.00 0.00 46 1012.4
20260507175503 57 331 7.0 14.0 0.00 0.00 0.00 45 1012.4
20260507175003 58 308 7.0 8.0 0.00 0.00 0.00 45 1013.0
20260507174503 58 302 6.0 12.0 0.00 0.00 0.00 46 1012.7
20260507174003 57 247 5.0 12.0 0.00 0.00 0.00 44 1012.7
20260507173503 60 251 9.0 14.0 0.00 0.00 0.00 43 1012.9
20260507173003 60 230 10.0 15.0 0.00 0.00 0.00 45 1013.0
20260507172503 58 240 10.0 15.0 0.00 0.00 0.00 46 1013.0
20260507172003 59 263 12.0 17.0 0.00 0.00 0.00 44 1013.0
20260507171504 59 202 6.0 12.0 0.00 0.00 0.00 50 1013.2
20260507171003 57 225 7.0 12.0 0.00 0.00 0.00 50 1013.1
20260507170503 57 219 13.0 21.0 0.00 0.00 0.00 49 1013.2
20260507170003 57 220 8.0 14.0 0.00 0.00 0.00 48 1013.3
20260507165504 56 246 11.0 12.0 0.00 0.00 0.00 50 1013.3
20260507165003 56 234 11.0 14.0 0.00 0.00 0.00 49 1013.3
20260507164503 57 203 6.0 21.0 0.00 0.00 0.00 47 1013.5
20260507164003 59 221 9.0 14.0 0.00 0.00 0.00 49 1013.3
20260507163503 57 300 10.0 12.0 0.00 0.00 0.00 48 1013.3
20260507163003 56 303 5.0 12.0 0.00 0.00 0.00 50 1013.5
20260507162503 57 259 7.0 14.0 0.00 0.00 0.00 47 1013.5
20260507162003 58 266 5.0 12.0 0.00 0.00 0.00 52 1013.5
20260507161503 57 236 3.0 12.0 0.00 0.00 0.00 49 1013.5
20260507161003 57 249 8.0 14.0 0.00 0.00 0.00 48 1013.6
20260507160503 57 204 4.0 12.0 0.00 0.00 0.00 52 1013.7
20260507160003 56 200 14.0 21.0 0.00 0.00 0.00 48 1013.6
20260507155717 58 191 9.0 19.0 0.00 0.00 0.00 46 1013.8
20260507155003 56 215 6.0 8.0 0.00 0.00 0.00 49 1013.8
20260507154504 54 241 6.0 8.0 0.00 0.00 0.00 50 1013.8
20260507154003 54 246 7.0 10.0 0.00 0.00 0.00 49 1014.1
20260507153504 55 202 3.0 8.0 0.00 0.00 0.00 52 1014.0
20260507153003 54 237 8.0 10.0 0.00 0.00 0.00 50 1013.9
20260507152504 55 245 7.0 12.0 0.00 0.00 0.00 50 1014.3
20260507152003 55 261 5.0 10.0 0.00 0.00 0.00 51 1014.2
20260507151503 56 221 4.0 7.0 0.00 0.00 0.00 55 1014.1
20260507151216 55 254 3.0 7.0 0.00 0.00 0.00 52 1014.3
20260507150503 55 250 2.0 8.0 0.00 0.00 0.00 54 1014.3
20260507150003 55 205 9.0 14.0 0.00 0.00 0.00 54 1014.3
20260507145503 54 209 11.0 19.0 0.00 0.00 0.00 55 1014.4
20260507145003 53 219 6.0 15.0 0.00 0.00 0.00 58 1014.5
20260507144503 53 236 5.0 10.0 0.00 0.00 0.00 55 1014.6
20260507144218 53 245 7.0 14.0 0.00 0.00 0.00 54 1014.7
20260507143503 53 246 7.0 14.0 0.00 0.00 0.00 56 1014.7
20260507143003 54 224 7.0 14.0 0.00 0.00 0.00 54 1014.9
20260507142503 54 313 9.0 17.0 0.00 0.00 0.00 55 1014.8
20260507142003 54 206 5.0 10.0 0.00 0.00 0.00 56 1014.6
20260507141503 54 327 5.0 14.0 0.00 0.00 0.00 59 1014.8
20260507141003 54 196 3.0 7.0 0.00 0.00 0.00 58 1015.0
20260507140503 54 201 4.0 8.0 0.00 0.00 0.00 59 1015.2
20260507140218 54 216 4.0 8.0 0.00 0.00 0.00 59 1015.0
20260507135503 53 247 6.0 10.0 0.00 0.00 0.00 61 1015.0
20260507135003 52 308 3.0 10.0 0.00 0.00 0.00 61 1015.1
20260507134504 53 215 4.0 8.0 0.00 0.00 0.00 61 1015.1
20260507134003 52 194 7.0 10.0 0.00 0.00 0.00 63 1015.1
20260507133717 52 256 4.0 8.0 0.00 0.00 0.00 62 1015.2
20260507133218 52 234 5.0 8.0 0.00 0.00 0.00 61 1015.2
20260507132504 51 220 8.0 14.0 0.00 0.01 0.00 64 1015.3
20260507132003 51 225 6.0 12.0 0.00 0.01 0.00 63 1015.3
20260507131503 51 213 4.0 8.0 0.00 0.01 0.00 66 1015.3
20260507131004 50 189 5.0 10.0 0.00 0.01 0.00 69 1015.4
20260507130503 50 196 7.0 10.0 0.00 0.02 0.00 66 1015.3
20260507130217 50 203 7.0 12.0 0.00 0.02 0.00 65 1015.6
20260507125503 50 184 10.0 14.0 0.00 0.02 0.00 69 1015.3
20260507125003 48 186 5.0 8.0 0.00 0.02 0.00 74 1015.4
20260507124503 48 181 6.0 10.0 0.00 0.02 0.00 74 1015.4
20260507124003 48 193 7.0 10.0 0.00 0.02 0.00 75 1015.4
20260507123503 47 183 7.0 10.0 0.00 0.02 0.00 76 1015.3
20260507123003 47 191 8.0 10.0 0.00 0.02 0.00 76 1015.4
20260507122503 47 190 8.0 10.0 0.00 0.02 0.00 78 1015.4
20260507122003 46 181 6.0 8.0 0.00 0.02 0.00 80 1015.4
20260507121503 46 204 5.0 10.0 0.00 0.02 0.00 82 1015.4
20260507121003 45 181 6.0 8.0 0.00 0.02 0.00 84 1015.3
20260507120503 45 174 4.0 7.0 0.00 0.04 0.00 85 1015.4
20260507120004 44 180 5.0 7.0 0.00 0.04 0.00 87 1015.3
20260507115503 44 191 5.0 5.0 0.00 0.04 0.00 89 1015.6
20260507115003 43 168 3.0 3.0 0.00 0.05 0.00 92 1015.2
20260507114503 43 135 2.0 3.0 0.00 0.05 0.00 95 1015.2
20260507114217 42 134 1.0 2.0 0.00 0.05 0.00 96 1015.3
20260507113504 41 0 0.0 0.0 0.00 0.05 0.00 100 1015.2
20260507113005 41 0 0.0 0.0 0.00 0.08 0.00 100 1015.3
20260507112503 40 0 0.0 0.0 0.00 0.11 0.00 100 1015.2
20260507112003 41 0 0.0 0.0 0.00 0.11 0.00 100 1015.1
20260507111718 40 0 0.0 0.0 0.00 0.11 0.00 100 1015.0
20260507111003 39 0 0.0 0.0 0.00 0.11 0.00 100 1015.0
20260507110504 38 0 0.0 0.0 0.00 0.11 0.00 100 1015.1
20260507110003 38 0 0.0 0.0 0.00 0.12 0.00 100 1015.1
20260507105503 37 133 2.0 8.0 0.00 0.12 0.00 100 1015.2
20260507105003 37 0 0.0 0.0 0.00 0.13 0.00 100 1014.9
20260507104503 36 0 0.0 0.0 0.00 0.15 0.00 100 1014.8
20260507104003 36 0 0.0 0.0 0.00 0.15 0.00 100 1014.9
20260507103503 36 0 0.0 0.0 0.00 0.17 0.00 100 1015.0
20260507103003 36 96 0.0 3.0 0.00 0.18 0.00 100 1014.7
20260507102503 36 0 0.0 0.0 0.00 0.19 0.00 100 1014.7
20260507102003 36 0 0.0 0.0 0.00 0.20 0.00 100 1015.0
20260507101503 36 0 0.0 0.0 0.00 0.21 0.00 100 1014.7
20260507101003 36 0 0.0 0.0 0.00 0.22 0.00 100 1014.8
20260507100503 36 0 0.0 0.0 0.00 0.23 0.00 100 1014.7
20260507100216 36 0 0.0 0.0 0.00 0.24 0.00 100 1014.6
20260507095503 36 0 0.0 0.0 0.00 0.26 0.00 97 1014.6
20260507095003 36 0 0.0 0.0 0.00 0.28 0.00 97 1014.8
20260507094503 36 0 0.0 0.0 0.00 0.28 0.00 97 1014.7
20260507094003 36 0 0.0 0.0 0.00 0.29 0.00 96 1014.7
20260507093504 36 0 0.0 0.0 0.00 0.30 0.00 96 1014.8
20260507093218 36 0 0.0 0.0 0.00 0.31 0.00 96 1014.7
20260507092503 36 0 0.0 0.0 0.00 0.32 0.00 96 1014.8
20260507092003 36 0 0.0 0.0 0.00 0.33 0.00 96 1014.9
20260507091503 36 0 0.0 0.0 0.00 0.34 0.00 96 1015.0
20260507091003 37 0 0.0 0.0 0.00 0.37 0.00 95 1014.7
20260507090503 37 0 0.0 0.0 0.00 0.37 0.00 95 1015.0
20260507090004 37 0 0.0 0.0 0.00 0.39 0.00 95 1014.9
20260507085503 37 0 0.0 0.0 0.00 0.40 0.00 95 1014.8
20260507085004 38 0 0.0 0.0 0.00 0.42 0.00 94 1014.8
20260507084719 38 0 0.0 0.0 0.00 0.42 0.00 94 1014.9
20260507084003 38 0 0.0 0.0 0.00 0.44 0.00 94 1014.8
20260507083503 38 0 0.0 0.0 0.00 0.45 0.00 94 1014.8
20260507083218 38 0 0.0 0.0 0.00 0.45 0.00 94 1014.8
20260507082503 38 0 0.0 0.0 0.00 0.46 0.00 93 1014.9
20260507082003 39 0 0.0 0.0 0.00 0.48 0.00 92 1014.8
20260507081503 39 0 0.0 0.0 0.00 0.48 0.00 91 1014.6
20260507081003 39 0 0.0 0.0 0.00 0.50 0.00 91 1014.7
20260507080503 39 88 0.0 2.0 0.00 0.51 0.00 91 1014.9
20260507080218 39 0 0.0 0.0 0.00 0.51 0.00 92 1014.7
20260507075503 39 0 0.0 0.0 0.00 0.51 0.00 92 1014.7
20260507075003 39 0 0.0 0.0 0.00 0.51 0.00 91 1015.0
20260507074503 40 0 0.0 0.0 0.00 0.51 0.00 91 1015.0
20260507074003 40 0 0.0 0.0 0.00 0.51 0.00 91 1015.0
20260507073503 40 0 0.0 0.0 0.00 0.51 0.00 90 1014.9
20260507073217 40 0 0.0 0.0 0.00 0.51 0.00 90 1014.8
20260507072503 41 0 0.0 0.0 0.00 0.51 0.00 89 1015.0
20260507072217 41 0 0.0 0.0 0.00 0.51 0.00 89 1014.9
20260507071503 42 0 0.0 0.0 0.00 0.51 0.00 89 1015.1
20260507071003 42 0 0.0 0.0 0.00 0.51 0.00 89 1015.1
20260507070503 42 0 0.0 0.0 0.00 0.51 0.00 88 1015.2
20260507070005 42 0 0.0 0.0 0.00 0.51 0.00 87 1015.2
20260507065503 42 0 0.0 0.0 0.00 0.51 0.00 87 1015.1
20260507065003 42 0 0.0 0.0 0.00 0.51 0.00 86 1015.2
20260507064503 42 0 0.0 0.0 0.00 0.51 0.00 86 1014.9
20260507064003 42 0 0.0 0.0 0.00 0.52 0.00 85 1015.1
20260507063503 42 0 0.0 0.0 0.00 0.52 0.00 84 1015.0
20260507063003 43 0 0.0 0.0 0.00 0.53 0.00 82 1014.9
20260507062503 43 87 0.0 2.0 0.00 0.53 0.00 80 1015.0
20260507062003 43 87 1.0 2.0 0.00 0.53 0.00 80 1014.9
20260507061718 43 87 0.0 2.0 0.00 0.53 0.00 80 1015.0
20260507061003 44 0 0.0 0.0 0.00 0.54 0.00 78 1015.1
20260507060503 44 0 0.0 0.0 0.00 0.54 0.00 78 1015.1
20260507060003 44 0 0.0 0.0 0.00 0.55 0.00 78 1015.1
20260507055503 44 0 0.0 0.0 0.00 0.55 0.00 78 1015.3
20260507055003 45 86 0.0 2.0 0.00 0.56 0.00 77 1015.4
20260507054503 45 0 0.0 0.0 0.00 0.56 0.00 77 1015.6
20260507054004 45 0 0.0 0.0 0.00 0.56 0.00 78 1015.4
20260507053503 46 0 0.0 0.0 0.00 0.58 0.00 76 1015.4
20260507053217 46 355 0.0 2.0 0.00 0.58 0.00 76 1015.7
20260507052718 46 0 0.0 0.0 0.00 0.58 0.00 76 1015.9
20260507052003 46 320 3.0 5.0 0.00 0.58 0.00 74 1015.8
20260507051718 46 47 0.0 3.0 0.00 0.58 0.00 76 1016.0
20260507051219 46 4 1.0 3.0 0.00 0.58 0.00 76 1016.0
20260507050503 46 325 2.0 3.0 0.00 0.60 0.00 76 1016.0
20260507050005 46 254 0.0 2.0 0.00 0.60 0.00 75 1015.7
20260507045503 46 256 0.0 2.0 0.00 0.61 0.00 75 1015.7
20260507045003 46 252 0.0 2.0 0.00 0.61 0.00 75 1016.0
20260507044717 46 257 0.0 2.0 0.00 0.62 0.00 75 1016.1
20260507044216 47 220 1.0 2.0 0.00 0.62 0.00 74 1015.8
20260507043503 47 246 0.0 2.0 0.00 0.62 0.00 74 1015.8
20260507043003 47 6 1.0 3.0 0.00 0.62 0.00 73 1015.9
20260507042503 47 25 1.0 2.0 0.00 0.62 0.00 73 1015.8
20260507042218 47 20 1.0 2.0 0.00 0.62 0.00 73 1016.0
20260507041503 47 336 2.0 3.0 0.00 0.62 0.00 72 1015.9
20260507041003 47 292 1.0 2.0 0.00 0.62 0.00 71 1015.8
20260507040503 47 0 0.0 0.0 0.00 0.62 0.00 74 1015.7
20260507040003 47 300 0.0 2.0 0.00 0.62 0.00 72 1015.8
20260507035503 47 307 2.0 3.0 0.00 0.62 0.62 71 1015.6
20260507035218 47 305 2.0 2.0 0.00 0.62 0.62 71 1015.7
20260507034717 47 307 2.0 2.0 0.00 0.62 0.62 70 1015.7
20260507034003 47 327 2.0 2.0 0.00 0.62 0.62 70 1015.7
20260507033503 47 324 1.0 3.0 0.00 0.62 0.62 70 1015.8
20260507033218 47 262 1.0 2.0 0.00 0.62 0.62 71 1015.6
20260507032503 47 345 1.0 2.0 0.00 0.62 0.62 71 1015.4
20260507032003 48 335 0.0 3.0 0.00 0.62 0.62 71 1015.7
20260507031503 48 265 1.0 3.0 0.00 0.62 0.62 72 1015.4
20260507031218 48 328 1.0 3.0 0.00 0.62 0.62 71 1015.4
20260507030503 48 327 2.0 3.0 0.00 0.62 0.62 70 1015.2
20260507030003 48 224 1.0 2.0 0.00 0.62 0.62 71 1015.4
20260507025717 48 0 0.0 0.0 0.00 0.62 0.62 71 1015.6
20260507025003 48 0 0.0 0.0 0.00 0.62 0.62 71 1015.3
20260507024503 48 22 0.0 2.0 0.00 0.62 0.62 71 1015.3
20260507024003 48 0 0.0 0.0 0.00 0.62 0.62 71 1015.1
20260507023503 48 0 0.0 0.0 0.00 0.62 0.62 71 1015.1
20260507023003 48 288 0.0 2.0 0.00 0.62 0.62 70 1015.4
20260507022503 48 44 2.0 5.0 0.00 0.62 0.62 68 1015.0
20260507022003 48 59 1.0 5.0 0.00 0.62 0.62 69 1015.1
20260507021504 48 38 1.0 5.0 0.00 0.62 0.62 69 1014.9
20260507021003 49 58 2.0 5.0 0.00 0.62 0.62 68 1015.1
20260507020503 49 13 0.0 3.0 0.00 0.62 0.62 68 1015.1
20260507020217 49 14 1.0 3.0 0.00 0.62 0.62 68 1014.9
20260507015503 49 36 3.0 5.0 0.00 0.62 0.62 67 1014.9
20260507015003 49 68 0.0 7.0 0.00 0.62 0.62 70 1014.8
20260507014504 49 25 3.0 8.0 0.00 0.62 0.62 68 1014.5
20260507014003 49 20 2.0 5.0 0.00 0.62 0.62 67 1014.5
20260507013503 49 35 2.0 7.0 0.00 0.62 0.62 67 1014.3
20260507013217 50 43 4.0 7.0 0.00 0.62 0.62 67 1014.3
20260507012503 50 94 3.0 5.0 0.00 0.62 0.62 67 1014.3
20260507012003 50 26 4.0 7.0 0.00 0.62 0.62 69 1014.3
20260507011504 50 31 3.0 10.0 0.00 0.62 0.62 68 1014.4
20260507011217 50 31 4.0 10.0 0.00 0.62 0.62 66 1014.2
20260507010503 50 63 4.0 5.0 0.00 0.62 0.62 70 1014.2
20260507010004 50 58 1.0 7.0 0.00 0.62 0.62 70 1014.5
20260507005718 50 38 2.0 7.0 0.00 0.62 0.62 68 1014.4
20260507005003 50 0 0.0 0.0 0.00 0.62 0.62 67 1014.7
20260507004503 50 37 0.0 2.0 0.00 0.62 0.62 67 1014.9
20260507004003 50 308 1.0 3.0 0.00 0.62 0.62 65 1014.8
20260507003503 51 329 3.0 5.0 0.00 0.62 0.62 64 1014.9
20260507003217 51 343 1.0 10.0 0.00 0.62 0.62 64 1014.5
20260507002503 51 56 0.0 8.0 0.00 0.62 0.62 68 1014.6